Tracking 18843 objects as of 20-November-2017
HD Live streaming from Space Station
objects crossing your sky now

BREEZE-KM R/B

Track BREEZE-KM R/B now!
10-day predictions


NORAD ID: 42970
Int'l Code: 2017-064B
Perigee: 419.4 km
Apogee: 774.7 km
Inclination: 98.7 °
Period: 96.5 minutes
Semi major axis: 6968 km
RCS: Unknown
Launch date: October 13, 2017
Source: Commonwealth of Independent States (former USSR) (CIS)
Launch site: PLESETSK MISSILE AND SPACE COMPLEX (PKMTR)

Note: This is a ROCKET BODY
aabbcc
Your satellite tracking list
Your tracking list is empty




NASA's NSSDC Master Catalog

Two Line Element Set (TLE):
1 42970U 17064B   17323.85994709  .00000785  00000-0  45697-4 0  9992
2 42970  98.7477 266.2686 0254933 187.0705 172.6891 14.92585313  5578
Source of the keplerian elements: AFSPC